Airfield :
LOGIN :

Register | Disclaimer

   EN    FR    IT 

 










Legend :    VFR   Marginal VFR   IFR   Intensive IFR   Very Intensive IFR
Visi :
Ceiling :
>= 8 km
>= 3000ft
5 to 8 km
1000 to 3000 ft
1500m to 5 km
500 to 1000 ft
800 to 1500m
200 to 500 ft
< 800m
< 200 ft
Symbols :   Thunderstorms  Fog  Heavy snow  Heavy precipitations  Wind > 20 kt
SIGMETs :     Misc.  Thunderstorms  Icing  Turbulence  Mountain Waves  Volcanic Ashes







- Airport Elevation : 196 ft
- IATA code : SDN


ENSD - Sandane , Anda

CURRENT METAR :
  • 181450Z 06007KT 020V090 9999 FEW055 SCT085 20/11 Q0995 RMK WIND 1138FT VRB03KT

EXPIRED METARs :
  • 181420Z 07006KT 030V110 9999 FEW055 SCT085 20/12 Q0996 RMK WIND 1138FT VRB04KT
  • 181350Z VRB05KT 9999 SCT052 21/11 Q0996 RMK WIND 1138FT 18006KT
  • 181320Z 19010G21KT 110V260 9999 SCT052 22/11 Q0997 RMK WIND 1138FT VRB07G17KT
  • 181250Z 19013G26KT 120V230 9999 SCT052 22/11 Q0997 RMK WIND 1138FT 18011G26KT
  • 181220Z 17013G28KT 080V220 9999 SCT052 21/10 Q0997 RMK WIND 1138FT VRB07KT

TAF N/A
No reported NOTAMs for that airfield.



MET'MAP, your aeronautical weather chart ! - Copyright ORBIFLY December 2007 - Disclaimer

ORBIFLY MET'MAP TEAM :

Programming & Development : Alexandra Zaïnal
Concept & Development : Baudouin d'Aumeries
Co-Development & Prog : Marc-Olivier Méhu
Technical & hardware support : Manuel Goepfert

Contact : metmap@orbifly.com




SOURCES & CREDITS :

   NOAA